Location: Lecco
(45.8566°N, 9.3977°E)
Time: 04:52:39
(UTC+02:00)

Transit 4A - Pass Details

Date: 16 August 2020
Orbit: 863 x 982 km, 66.8° (Epoch: 23 September)

Event Time Altitude Azimuth Distance (km) Brightness Sun altitude
Rises 11:56:04 0° 276° (W) 3,546 10.7 52.4°
Reaches altitude 10° 11:59:40 10° 297° (WNW) 2,632 10.1 52.8°
Maximum altitude 12:03:21 16° 334° (NNW) 2,244 9.7 53.2°
Drops below altitude 10° 12:07:06 10° 12° (NNE) 2,686 10.2 53.6°
Sets 12:10:51 0° 33° (NNE) 3,656 10.9 53.9°
